EN

Hourly Weather Domakha

Today, 14 April, Wednesday

Time Temperature Precipitation Wind Pressure Humidity
00:00 +7°C° 0 mm 2 mps 752 mmHg 88%
01:00 +7°C° 0 mm 2 mps 752 mmHg 90%
02:00 +7°C° 0 mm 1 mps 752 mmHg 91%
03:00 +7°C° 0 mm 1 mps 752 mmHg 91%
04:00 +7°C° 0 mm 1 mps 751 mmHg 91%
05:00 +7°C° 0 mm 1 mps 751 mmHg 90%
06:00 +8°C° 0 mm 1 mps 751 mmHg 85%
07:00 +9°C° 0 mm 1 mps 751 mmHg 79%
08:00 +10°C° 0 mm 1 mps 751 mmHg 74%
09:00 +11°C° 0 mm 1 mps 751 mmHg 70%
10:00 +12°C° 0 mm 1 mps 750 mmHg 67%
11:00 +13°C° 0 mm 1 mps 750 mmHg 64%
12:00 +13°C° 0.1 mm 2 mps 750 mmHg 64%
13:00 +14°C° 0.1 mm 2 mps 749 mmHg 64%
14:00 +14°C° 0.1 mm 2 mps 749 mmHg 64%
15:00 +14°C° 0 mm 2 mps 749 mmHg 63%
16:00 +14°C° 0 mm 2 mps 749 mmHg 62%
17:00 +14°C° 0 mm 2 mps 749 mmHg 61%
18:00 +13°C° 0 mm 2 mps 749 mmHg 65%
19:00 +12°C° 0 mm 2 mps 749 mmHg 69%
20:00 +10°C° 0 mm 2 mps 749 mmHg 73%
21:00 +9°C° 0 mm 2 mps 748 mmHg 75%
22:00 +8°C° 0 mm 2 mps 748 mmHg 76%
23:00 +8°C° 0 mm 3 mps 748 mmHg 78%

Tomorrow, 15 April, Thursday

Time Temperature Precipitation Wind Pressure Humidity
00:00 +7°C° 0 mm 3 mps 748 mmHg 81%
01:00 +7°C° 0 mm 2 mps 748 mmHg 83%
02:00 +6°C° 0 mm 2 mps 748 mmHg 86%
03:00 +6°C° 0 mm 2 mps 748 mmHg 87%
04:00 +5°C° 0 mm 3 mps 748 mmHg 89%
05:00 +5°C° 0 mm 3 mps 748 mmHg 90%
06:00 +7°C° 0.1 mm 3 mps 748 mmHg 86%
07:00 +8°C° 0.1 mm 3 mps 748 mmHg 83%
08:00 +10°C° 0.1 mm 4 mps 748 mmHg 79%
09:00 +10°C° 0.5 mm 4 mps 748 mmHg 78%
10:00 +10°C° 0.5 mm 4 mps 748 mmHg 78%
11:00 +11°C° 0.5 mm 4 mps 747 mmHg 77%
12:00 +11°C° 0.8 mm 4 mps 747 mmHg 78%
13:00 +10°C° 0.8 mm 5 mps 747 mmHg 79%
14:00 +10°C° 0.8 mm 5 mps 747 mmHg 81%
15:00 +10°C° 0.5 mm 5 mps 747 mmHg 75%
16:00 +12°C° 0.5 mm 4 mps 747 mmHg 70%
17:00 +12°C° 0.5 mm 4 mps 747 mmHg 64%
18:00 +11°C° 0.1 mm 4 mps 747 mmHg 68%
19:00 +10°C° 0.1 mm 3 mps 747 mmHg 73%
20:00 +9°C° 0.1 mm 3 mps 747 mmHg 77%
21:00 +8°C° 0 mm 3 mps 747 mmHg 80%
22:00 +7°C° 0 mm 4 mps 747 mmHg 82%
23:00 +7°C° 0 mm 4 mps 747 mmHg 84%

Day after tomorrow, 16 April, Friday

Time Temperature Precipitation Wind Pressure Humidity
00:00 +6°C° 0 mm 4 mps 747 mmHg 85%
01:00 +6°C° 0 mm 4 mps 747 mmHg 87%
02:00 +5°C° 0 mm 3 mps 747 mmHg 88%
03:00 +5°C° 0 mm 3 mps 747 mmHg 88%
04:00 +5°C° 0 mm 3 mps 748 mmHg 87%
05:00 +5°C° 0 mm 3 mps 748 mmHg 86%
06:00 +6°C° 0 mm 4 mps 748 mmHg 86%
07:00 +6°C° 0 mm 4 mps 748 mmHg 86%
08:00 +6°C° 0 mm 4 mps 748 mmHg 87%
09:00 +7°C° 0 mm 4 mps 749 mmHg 84%
10:00 +7°C° 0 mm 4 mps 749 mmHg 82%
11:00 +7°C° 0 mm 5 mps 749 mmHg 80%
12:00 +8°C° 0 mm 4 mps 749 mmHg 77%
13:00 +8°C° 0 mm 4 mps 749 mmHg 74%
14:00 +10°C° 0 mm 4 mps 749 mmHg 71%
15:00 +10°C° 0.2 mm 4 mps 749 mmHg 70%
16:00 +10°C° 0.2 mm 4 mps 749 mmHg 70%
17:00 +10°C° 0.2 mm 3 mps 749 mmHg 69%
18:00 +9°C° 0.2 mm 3 mps 750 mmHg 73%
19:00 +8°C° 0.2 mm 3 mps 750 mmHg 77%
20:00 +7°C° 0.2 mm 3 mps 750 mmHg 81%
21:00 +7°C° 0 mm 3 mps 750 mmHg 83%
22:00 +5°C° 0 mm 3 mps 751 mmHg 85%
23:00 +4°C° 0 mm 3 mps 751 mmHg 86%

17 April, Saturday

Time Temperature Precipitation Wind Pressure Humidity
00:00 +5°C° 0 mm 2 mps 751 mmHg 87%
01:00 +4°C° 0 mm 2 mps 751 mmHg 89%
02:00 +3°C° 0 mm 2 mps 751 mmHg 90%
03:00 +3°C° 0 mm 2 mps 751 mmHg 90%
04:00 +3°C° 0 mm 2 mps 752 mmHg 90%
05:00 +3°C° 0 mm 2 mps 752 mmHg 89%
06:00 +4°C° 0 mm 2 mps 752 mmHg 85%
07:00 +4°C° 0 mm 3 mps 752 mmHg 81%
08:00 +5°C° 0 mm 3 mps 752 mmHg 77%
09:00 +7°C° 0 mm 3 mps 752 mmHg 75%
10:00 +7°C° 0 mm 3 mps 752 mmHg 72%
11:00 +8°C° 0 mm 2 mps 752 mmHg 69%
12:00 +8°C° 0 mm 2 mps 752 mmHg 67%
13:00 +9°C° 0 mm 2 mps 752 mmHg 64%
14:00 +10°C° 0 mm 2 mps 752 mmHg 61%
15:00 +9°C° 0 mm 2 mps 752 mmHg 62%
16:00 +10°C° 0 mm 1 mps 752 mmHg 63%
17:00 +10°C° 0 mm 1 mps 752 mmHg 64%
18:00 +10°C° 0 mm 1 mps 752 mmHg 67%
19:00 +8°C° 0 mm 2 mps 752 mmHg 69%
20:00 +8°C° 0 mm 2 mps 752 mmHg 72%
21:00 +8°C° 0 mm 2 mps 752 mmHg 74%
22:00 +8°C° 0 mm 2 mps 752 mmHg 76%
23:00 +7°C° 0 mm 2 mps 752 mmHg 78%

18 April, Sunday

Time Temperature Precipitation Wind Pressure Humidity
00:00 +7°C° 0 mm 2 mps 752 mmHg 80%
01:00 +7°C° 0 mm 2 mps 752 mmHg 82%
02:00 +7°C° 0 mm 2 mps 752 mmHg 85%
03:00 +8°C° 0 mm 1 mps 752 mmHg 84%
04:00 +8°C° 0 mm 1 mps 752 mmHg 84%
05:00 +8°C° 0 mm 1 mps 752 mmHg 84%
06:00 +9°C° 0 mm 1 mps 752 mmHg 79%
07:00 +9°C° 0 mm 1 mps 752 mmHg 75%
08:00 +10°C° 0 mm 1 mps 752 mmHg 70%
09:00 +11°C° 0 mm 1 mps 753 mmHg 65%
10:00 +12°C° 0 mm 1 mps 753 mmHg 60%
11:00 +13°C° 0 mm 1 mps 753 mmHg 56%
12:00 +13°C° 0 mm 2 mps 753 mmHg 56%
13:00 +13°C° 0 mm 2 mps 753 mmHg 56%
14:00 +12°C° 0 mm 3 mps 753 mmHg 56%
15:00 +12°C° 0 mm 3 mps 753 mmHg 57%
16:00 +12°C° 0 mm 3 mps 753 mmHg 58%
17:00 +12°C° 0 mm 3 mps 753 mmHg 59%
18:00 +11°C° 0 mm 3 mps 753 mmHg 64%
19:00 +10°C° 0 mm 3 mps 754 mmHg 70%
20:00 +8°C° 0 mm 2 mps 754 mmHg 75%
21:00 +8°C° 0 mm 2 mps 754 mmHg 76%
22:00 +8°C° 0 mm 2 mps 754 mmHg 78%
23:00 +7°C° 0 mm 2 mps 754 mmHg 79%

19 April, Monday

Time Temperature Precipitation Wind Pressure Humidity
00:00 +7°C° 0 mm 2 mps 754 mmHg 80%
01:00 +7°C° 0 mm 2 mps 754 mmHg 81%
02:00 +6°C° 0 mm 2 mps 754 mmHg 83%
03:00 +6°C° 0 mm 2 mps 754 mmHg 85%
04:00 +5°C° 0 mm 3 mps 754 mmHg 86%
05:00 +4°C° 0 mm 3 mps 754 mmHg 88%
06:00 +7°C° 0 mm 3 mps 754 mmHg 82%
07:00 +8°C° 0 mm 4 mps 755 mmHg 77%
08:00 +10°C° 0 mm 5 mps 755 mmHg 72%
09:00 +12°C° 0 mm 5 mps 755 mmHg 65%
10:00 +13°C° 0 mm 6 mps 755 mmHg 59%
11:00 +15°C° 0 mm 6 mps 755 mmHg 53%
12:00 +15°C° 0 mm 6 mps 755 mmHg 51%
13:00 +15°C° 0 mm 6 mps 754 mmHg 50%
14:00 +15°C° 0 mm 6 mps 754 mmHg 49%
15:00 +15°C° 0 mm 6 mps 754 mmHg 51%
16:00 +15°C° 0 mm 6 mps 754 mmHg 52%
17:00 +14°C° 0 mm 6 mps 754 mmHg 54%
18:00 +12°C° 0 mm 7 mps 754 mmHg 59%
19:00 +11°C° 0 mm 8 mps 754 mmHg 63%
20:00 +10°C° 0 mm 8 mps 754 mmHg 68%
21:00 +9°C° 0 mm 8 mps 754 mmHg 69%
22:00 +7°C° 0 mm 8 mps 753 mmHg 71%
23:00 +7°C° 0 mm 8 mps 753 mmHg 73%
Show more

We Need Your Consent

Meteoprog and our Service Providers may store and access personal data such as cookies, device identifiers or other similar technologies on your device and process such data to personalise content and ads, as well as provide social media features and to analyse the traffic.

  • Store and/or access information on your device

    Cookies, device identifiers or other information can be stored or accessed on your device for the purposes indicated above.

  • Personalised ads and content, ad and content measurement, audience insights, and products development

    Ads and content can be personalised based on a profile. More data can be added to better personalise ads and content. Ad and content performance can be measured. Insights about the audience who saw the ads and content can be derived. Such data can be used to develop or improve user’s experience, systems and software.

By clicking ‘I Agree’ you will allow the use of indicated cookies, device identifiers, web beacons or other similar technologies. Your settings can be changed in the browser on your device.

For certain purposes, legitimate interests may be relied on, rather than consent. You can read more about this in our Privacy and Cookie Policy.